Time,TemperatureF,DewpointF,PressureIn,WindDirection,WindDirectionDegrees,WindSpeedMPH,WindSpeedGustMPH,Humidity,HourlyPrecipIn,Conditions,Clouds,dailyrainin,SoftwareType,DateUTC
2013-01-22 00:01:00,25.9,24.7,30.11,SSW,202,0.0,0.0,96,0.00,,,0.00,WUHU21623XXSP,2013-01-22 08:01:00,
2013-01-22 00:06:00,25.9,24.9,30.10,SSW,202,0.0,0.0,96,0.00,,,0.00,WUHU21623XXSP,2013-01-22 08:06:00,
2013-01-22 00:11:00,25.9,24.9,30.09,SSW,202,0.0,0.0,96,0.00,,,0.00,WUHU21623XXSP,2013-01-22 08:11:00,
2013-01-22 00:16:00,25.9,24.9,30.09,WSW,247,0.0,0.0,96,0.00,,,0.00,WUHU21623XXSP,2013-01-22 08:16:00,
2013-01-22 00:21:00,25.9,24.9,30.09,North,0,0.0,0.0,96,0.00,,,0.00,WUHU21623XXSP,2013-01-22 08:21:00,
2013-01-22 00:26:00,25.9,24.9,30.09,NNW,337,0.0,0.0,96,0.00,,,0.00,WUHU21623XXSP,2013-01-22 08:26:00,
2013-01-22 00:31:00,25.9,24.9,30.09,NNW,337,0.0,0.0,96,0.00,,,0.00,WUHU21623XXSP,2013-01-22 08:31:00,
2013-01-22 00:36:00,25.9,24.9,30.08,ENE,67,0.0,0.0,96,0.00,,,0.00,WUHU21623XXSP,2013-01-22 08:36:00,
2013-01-22 00:41:00,25.9,24.9,30.08,ENE,67,0.0,0.0,96,0.00,,,0.00,WUHU21623XXSP,2013-01-22 08:41:00,
2013-01-22 00:46:00,25.9,24.9,30.07,ENE,67,0.0,0.0,96,0.00,,,0.00,WUHU21623XXSP,2013-01-22 08:46:00,
2013-01-22 00:51:00,25.7,24.7,30.07,ENE,67,0.0,0.0,96,0.00,,,0.00,WUHU21623XXSP,2013-01-22 08:51:00,
2013-01-22 00:56:00,25.7,24.7,30.07,ENE,67,0.0,0.0,96,0.00,,,0.00,WUHU21623XXSP,2013-01-22 08:56:00,
2013-01-22 01:01:00,25.5,24.7,30.08,ENE,67,0.0,0.0,96,0.00,,,0.00,WUHU21623XXSP,2013-01-22 09:01:00,
2013-01-22 01:06:00,25.5,24.5,30.08,ENE,67,0.0,0.0,96,0.00,,,0.00,WUHU21623XXSP,2013-01-22 09:06:00,
2013-01-22 01:11:00,25.5,24.5,30.08,ENE,67,0.0,0.0,96,0.00,,,0.00,WUHU21623XXSP,2013-01-22 09:11:00,
2013-01-22 01:16:00,25.3,24.3,30.08,NE,45,0.0,0.0,96,0.00,,,0.00,WUHU21623XXSP,2013-01-22 09:16:00,
2013-01-22 01:21:00,25.2,24.2,30.07,NE,45,0.0,0.0,96,0.00,,,0.00,WUHU21623XXSP,2013-01-22 09:21:00,
2013-01-22 01:26:00,25.0,24.2,30.07,NE,45,0.0,0.0,96,0.00,,,0.00,WUHU21623XXSP,2013-01-22 09:26:00,
2013-01-22 01:31:00,25.0,24.0,30.08,NE,45,0.0,0.0,96,0.00,,,0.00,WUHU21623XXSP,2013-01-22 09:31:00,
2013-01-22 01:36:00,25.0,24.0,30.08,NE,45,0.0,0.0,96,0.00,,,0.00,WUHU21623XXSP,2013-01-22 09:36:00,
2013-01-22 01:41:00,25.0,24.0,30.08,NE,45,0.0,0.0,96,0.00,,,0.00,WUHU21623XXSP,2013-01-22 09:41:00,
2013-01-22 01:46:00,25.0,24.0,30.08,NE,45,0.0,0.0,96,0.00,,,0.00,WUHU21623XXSP,2013-01-22 09:46:00,
2013-01-22 01:51:00,25.0,24.0,30.08,NE,45,0.0,0.0,96,0.00,,,0.00,WUHU21623XXSP,2013-01-22 09:51:00,
2013-01-22 01:56:00,25.0,24.0,30.08,ENE,67,0.0,0.0,96,0.00,,,0.00,WUHU21623XXSP,2013-01-22 09:56:00,
2013-01-22 02:01:00,24.6,23.6,30.09,ENE,67,0.0,0.0,96,0.00,,,0.00,WUHU21623XXSP,2013-01-22 10:01:00,
2013-01-22 02:06:00,24.6,23.6,30.08,ENE,67,0.0,0.0,96,0.00,,,0.00,WUHU21623XXSP,2013-01-22 10:06:00,
2013-01-22 02:11:00,24.6,23.6,30.08,ENE,67,0.0,0.0,96,0.00,,,0.00,WUHU21623XXSP,2013-01-22 10:11:00,
2013-01-22 02:16:00,24.4,23.4,30.08,ENE,67,0.0,0.0,96,0.00,,,0.00,WUHU21623XXSP,2013-01-22 10:16:00,
2013-01-22 02:21:00,24.4,23.4,30.09,ENE,67,0.0,0.0,96,0.00,,,0.00,WUHU21623XXSP,2013-01-22 10:21:00,
2013-01-22 02:26:00,24.4,23.2,30.09,ENE,67,0.0,0.0,95,0.00,,,0.00,WUHU21623XXSP,2013-01-22 10:26:00,
2013-01-22 02:31:00,24.4,23.2,30.09,ENE,67,0.0,0.0,95,0.00,,,0.00,WUHU21623XXSP,2013-01-22 10:31:00,
2013-01-22 02:36:00,24.4,23.2,30.08,ENE,67,0.0,0.0,95,0.00,,,0.00,WUHU21623XXSP,2013-01-22 10:36:00,
2013-01-22 02:41:00,24.4,23.2,30.08,ENE,67,0.0,0.0,95,0.00,,,0.00,WUHU21623XXSP,2013-01-22 10:41:00,
2013-01-22 02:46:00,24.4,23.2,30.07,ENE,67,0.0,0.0,95,0.00,,,0.00,WUHU21623XXSP,2013-01-22 10:46:00,
2013-01-22 02:51:00,24.3,23.0,30.07,ENE,67,0.0,0.0,95,0.00,,,0.00,WUHU21623XXSP,2013-01-22 10:51:00,
2013-01-22 02:56:00,24.1,22.8,30.07,ENE,67,0.0,0.0,95,0.00,,,0.00,WUHU21623XXSP,2013-01-22 10:56:00,
2013-01-22 03:01:00,24.1,22.8,30.07,ENE,67,0.0,0.0,95,0.00,,,0.00,WUHU21623XXSP,2013-01-22 11:01:00,
2013-01-22 03:06:00,24.1,22.8,30.07,ENE,67,0.0,0.0,95,0.00,,,0.00,WUHU21623XXSP,2013-01-22 11:06:00,
2013-01-22 03:11:00,24.1,22.8,30.07,ENE,67,0.0,0.0,95,0.00,,,0.00,WUHU21623XXSP,2013-01-22 11:11:00,
2013-01-22 03:16:00,24.1,22.8,30.07,ENE,67,0.0,0.0,95,0.00,,,0.00,WUHU21623XXSP,2013-01-22 11:16:00,
2013-01-22 03:21:00,24.1,22.8,30.07,ENE,67,0.0,0.0,95,0.00,,,0.00,WUHU21623XXSP,2013-01-22 11:21:00,
2013-01-22 03:26:00,24.1,22.8,30.07,ENE,67,0.0,0.0,95,0.00,,,0.00,WUHU21623XXSP,2013-01-22 11:26:00,
2013-01-22 03:31:00,24.1,22.8,30.07,ENE,67,0.0,0.0,95,0.00,,,0.00,WUHU21623XXSP,2013-01-22 11:31:00,
2013-01-22 03:36:00,24.1,22.8,30.07,ENE,67,0.0,0.0,95,0.00,,,0.00,WUHU21623XXSP,2013-01-22 11:36:00,
2013-01-22 03:41:00,24.1,22.8,30.07,ENE,67,0.0,0.0,95,0.00,,,0.00,WUHU21623XXSP,2013-01-22 11:41:00,
2013-01-22 03:47:00,24.1,22.8,30.08,ENE,67,0.0,0.0,95,0.00,,,0.00,WUHU21623XXSP,2013-01-22 11:47:00,
2013-01-22 03:52:00,24.1,22.8,30.08,ENE,67,0.0,0.0,95,0.00,,,0.00,WUHU21623XXSP,2013-01-22 11:52:00,
2013-01-22 03:57:00,24.1,22.8,30.07,ENE,67,0.0,0.0,95,0.00,,,0.00,WUHU21623XXSP,2013-01-22 11:57:00,
2013-01-22 04:02:00,24.1,22.8,30.07,ENE,67,0.0,0.0,95,0.00,,,0.00,WUHU21623XXSP,2013-01-22 12:02:00,
2013-01-22 04:07:00,24.1,22.8,30.07,ENE,67,0.0,0.0,95,0.00,,,0.00,WUHU21623XXSP,2013-01-22 12:07:00,
2013-01-22 04:12:00,24.1,22.8,30.07,ENE,67,0.0,0.0,95,0.00,,,0.00,WUHU21623XXSP,2013-01-22 12:12:00,
2013-01-22 04:17:00,24.1,22.8,30.07,ENE,67,0.0,0.0,95,0.00,,,0.00,WUHU21623XXSP,2013-01-22 12:17:00,
2013-01-22 04:22:00,24.1,22.8,30.07,ENE,67,0.0,0.0,95,0.00,,,0.00,WUHU21623XXSP,2013-01-22 12:22:00,
2013-01-22 04:27:00,24.4,23.0,30.07,ENE,67,0.0,0.0,95,0.00,,,0.00,WUHU21623XXSP,2013-01-22 12:27:00,
2013-01-22 04:32:00,24.6,23.6,30.06,ENE,67,0.0,0.0,96,0.00,,,0.00,WUHU21623XXSP,2013-01-22 12:32:00,
2013-01-22 04:37:00,24.4,23.2,30.06,ENE,67,0.0,0.0,95,0.00,,,0.00,WUHU21623XXSP,2013-01-22 12:37:00,
2013-01-22 04:42:00,24.4,23.2,30.05,ENE,67,0.0,0.0,95,0.00,,,0.00,WUHU21623XXSP,2013-01-22 12:42:00,
2013-01-22 04:47:00,24.4,23.2,30.05,ENE,67,0.0,0.0,95,0.00,,,0.00,WUHU21623XXSP,2013-01-22 12:47:00,
2013-01-22 04:52:00,24.3,23.0,30.05,ENE,67,0.0,0.0,95,0.00,,,0.00,WUHU21623XXSP,2013-01-22 12:52:00,
2013-01-22 04:57:00,24.3,23.0,30.05,ENE,67,0.0,0.0,95,0.00,,,0.00,WUHU21623XXSP,2013-01-22 12:57:00,
2013-01-22 05:02:00,24.1,22.8,30.04,ENE,67,0.0,0.0,95,0.00,,,0.00,WUHU21623XXSP,2013-01-22 13:02:00,
2013-01-22 05:07:00,24.1,22.8,30.04,ENE,67,0.0,0.0,95,0.00,,,0.00,WUHU21623XXSP,2013-01-22 13:07:00,
2013-01-22 05:12:00,24.1,22.8,30.03,ENE,67,0.0,0.0,95,0.00,,,0.00,WUHU21623XXSP,2013-01-22 13:12:00,
2013-01-22 05:17:00,24.1,22.8,30.04,ENE,67,0.0,0.0,95,0.00,,,0.00,WUHU21623XXSP,2013-01-22 13:17:00,
2013-01-22 05:22:00,24.1,22.8,30.04,ENE,67,0.0,0.0,95,0.00,,,0.00,WUHU21623XXSP,2013-01-22 13:22:00,
2013-01-22 05:28:00,24.1,22.8,30.04,ENE,67,0.0,0.0,95,0.00,,,0.00,WUHU21623XXSP,2013-01-22 13:28:00,
2013-01-22 05:33:00,23.9,22.6,30.04,ENE,67,0.0,0.0,95,0.00,,,0.00,WUHU21623XXSP,2013-01-22 13:33:00,
2013-01-22 05:38:00,24.1,22.8,30.04,ENE,67,0.0,0.0,95,0.00,,,0.00,WUHU21623XXSP,2013-01-22 13:38:00,
2013-01-22 05:43:00,24.1,22.8,30.04,ENE,67,0.0,0.0,95,0.00,,,0.00,WUHU21623XXSP,2013-01-22 13:43:00,
2013-01-22 05:48:00,24.1,22.8,30.04,ENE,67,0.0,0.0,95,0.00,,,0.00,WUHU21623XXSP,2013-01-22 13:48:00,
2013-01-22 05:53:00,24.1,22.8,30.04,ENE,67,0.0,0.0,95,0.00,,,0.00,WUHU21623XXSP,2013-01-22 13:53:00,
2013-01-22 05:58:00,23.9,22.6,30.04,ENE,67,0.0,0.0,95,0.00,,,0.00,WUHU21623XXSP,2013-01-22 13:58:00,
2013-01-22 06:03:00,23.9,22.6,30.04,ENE,67,0.0,0.0,95,0.00,,,0.00,WUHU21623XXSP,2013-01-22 14:03:00,
2013-01-22 06:08:00,23.7,22.5,30.04,ENE,67,0.0,0.0,95,0.00,,,0.00,WUHU21623XXSP,2013-01-22 14:08:00,
2013-01-22 06:13:00,23.7,22.5,30.03,ENE,67,0.0,0.0,95,0.00,,,0.00,WUHU21623XXSP,2013-01-22 14:13:00,
2013-01-22 06:18:00,23.7,22.5,30.03,ENE,67,0.0,0.0,95,0.00,,,0.00,WUHU21623XXSP,2013-01-22 14:18:00,
2013-01-22 06:23:00,23.7,22.5,30.03,ENE,67,0.0,0.0,95,0.00,,,0.00,WUHU21623XXSP,2013-01-22 14:23:00,
2013-01-22 06:28:00,23.7,22.5,30.03,ENE,67,0.0,0.0,95,0.00,,,0.00,WUHU21623XXSP,2013-01-22 14:28:00,
2013-01-22 06:33:00,23.7,22.5,30.03,ENE,67,0.0,0.0,95,0.00,,,0.00,WUHU21623XXSP,2013-01-22 14:33:00,
2013-01-22 06:38:00,23.7,22.5,30.03,ENE,67,0.0,0.0,95,0.00,,,0.00,WUHU21623XXSP,2013-01-22 14:38:00,
2013-01-22 06:43:00,23.7,22.5,30.02,ENE,67,0.0,0.0,95,0.00,,,0.00,WUHU21623XXSP,2013-01-22 14:43:00,
2013-01-22 06:48:00,23.7,22.5,30.03,ENE,67,0.0,0.0,95,0.00,,,0.00,WUHU21623XXSP,2013-01-22 14:48:00,
2013-01-22 06:53:00,23.9,22.6,30.02,ENE,67,0.0,0.0,95,0.00,,,0.00,WUHU21623XXSP,2013-01-22 14:53:00,
2013-01-22 06:58:00,23.9,22.6,30.02,ENE,67,0.0,0.0,95,0.00,,,0.00,WUHU21623XXSP,2013-01-22 14:58:00,
2013-01-22 07:03:00,24.1,23.1,30.02,ENE,67,0.0,0.0,96,0.00,,,0.00,WUHU21623XXSP,2013-01-22 15:03:00,
2013-01-22 07:08:00,24.1,23.1,30.02,ENE,67,0.0,0.0,96,0.00,,,0.00,WUHU21623XXSP,2013-01-22 15:08:00,
2013-01-22 07:13:00,24.1,23.1,30.02,ENE,67,0.0,0.0,96,0.00,,,0.00,WUHU21623XXSP,2013-01-22 15:13:00,
2013-01-22 07:18:00,24.1,23.1,30.02,ENE,67,0.0,0.0,96,0.00,,,0.00,WUHU21623XXSP,2013-01-22 15:18:00,
2013-01-22 07:23:00,24.1,23.1,30.02,ENE,67,0.0,0.0,96,0.00,,,0.00,WUHU21623XXSP,2013-01-22 15:23:00,
2013-01-22 07:28:00,24.1,23.1,30.02,ENE,67,0.0,0.0,96,0.00,,,0.00,WUHU21623XXSP,2013-01-22 15:28:00,
2013-01-22 07:33:00,24.1,23.1,30.02,ENE,67,0.0,0.0,96,0.00,,,0.00,WUHU21623XXSP,2013-01-22 15:33:00,
2013-01-22 07:38:00,23.9,22.9,30.02,ENE,67,0.0,0.0,96,0.00,,,0.00,WUHU21623XXSP,2013-01-22 15:38:00,
2013-01-22 07:43:00,23.9,22.9,30.02,ENE,67,0.0,0.0,96,0.00,,,0.00,WUHU21623XXSP,2013-01-22 15:43:00,
2013-01-22 07:48:00,23.9,22.9,30.02,ENE,67,0.0,0.0,96,0.00,,,0.00,WUHU21623XXSP,2013-01-22 15:48:00,
2013-01-22 07:53:00,23.9,22.9,30.02,ENE,67,0.0,0.0,96,0.00,,,0.00,WUHU21623XXSP,2013-01-22 15:53:00,
2013-01-22 07:58:00,23.9,22.9,30.03,ENE,67,0.0,0.0,96,0.00,,,0.00,WUHU21623XXSP,2013-01-22 15:58:00,
2013-01-22 08:03:00,23.9,22.9,30.03,ENE,67,0.0,0.0,96,0.00,,,0.00,WUHU21623XXSP,2013-01-22 16:03:00,
2013-01-22 08:08:00,23.9,22.9,30.03,ENE,67,0.0,0.0,96,0.00,,,0.00,WUHU21623XXSP,2013-01-22 16:08:00,
2013-01-22 08:13:00,24.1,23.1,30.03,ENE,67,0.0,0.0,96,0.00,,,0.00,WUHU21623XXSP,2013-01-22 16:13:00,
2013-01-22 08:18:00,24.3,23.3,30.03,ENE,67,0.0,0.0,96,0.00,,,0.00,WUHU21623XXSP,2013-01-22 16:18:00,
2013-01-22 08:23:00,24.1,22.8,30.03,ENE,67,0.0,0.0,95,0.00,,,0.00,WUHU21623XXSP,2013-01-22 16:23:00,
2013-01-22 08:28:00,24.1,22.8,30.03,ENE,67,0.0,0.0,95,0.00,,,0.00,WUHU21623XXSP,2013-01-22 16:28:00,
2013-01-22 08:33:00,24.1,23.1,30.03,ENE,67,0.0,0.0,96,0.00,,,0.00,WUHU21623XXSP,2013-01-22 16:33:00,
2013-01-22 08:38:00,24.1,23.1,30.03,ENE,67,0.0,0.0,96,0.00,,,0.00,WUHU21623XXSP,2013-01-22 16:38:00,
2013-01-22 08:43:00,24.3,23.3,30.03,ENE,67,0.0,0.0,96,0.00,,,0.00,WUHU21623XXSP,2013-01-22 16:43:00,
2013-01-22 08:48:00,24.4,23.4,30.02,ENE,67,0.0,0.0,96,0.00,,,0.00,WUHU21623XXSP,2013-01-22 16:48:00,
2013-01-22 08:53:00,24.4,23.4,30.02,ENE,67,0.0,0.0,96,0.00,,,0.00,WUHU21623XXSP,2013-01-22 16:53:00,
2013-01-22 08:58:00,24.6,23.6,30.02,ENE,67,0.0,0.0,96,0.00,,,0.00,WUHU21623XXSP,2013-01-22 16:58:00,
2013-01-22 09:03:00,25.0,23.8,30.02,ENE,67,0.0,0.0,96,0.00,,,0.00,WUHU21623XXSP,2013-01-22 17:03:00,
2013-01-22 09:08:00,25.0,24.0,30.02,ENE,67,0.0,0.0,96,0.00,,,0.00,WUHU21623XXSP,2013-01-22 17:08:00,
2013-01-22 09:13:00,25.2,24.2,30.01,ENE,67,0.0,0.0,96,0.00,,,0.00,WUHU21623XXSP,2013-01-22 17:13:00,
2013-01-22 09:18:00,25.5,24.3,30.01,ENE,67,0.0,0.0,96,0.00,,,0.00,WUHU21623XXSP,2013-01-22 17:18:00,
2013-01-22 09:23:00,25.7,24.5,30.01,ENE,67,0.0,0.0,96,0.00,,,0.00,WUHU21623XXSP,2013-01-22 17:23:00,
2013-01-22 09:28:00,25.7,24.7,30.02,ENE,67,0.0,0.0,96,0.00,,,0.00,WUHU21623XXSP,2013-01-22 17:28:00,
2013-01-22 09:33:00,26.1,25.1,30.02,ENE,67,0.0,0.0,96,0.00,,,0.00,WUHU21623XXSP,2013-01-22 17:33:00,
2013-01-22 09:38:00,26.2,25.2,30.02,ENE,67,0.0,0.0,96,0.00,,,0.00,WUHU21623XXSP,2013-01-22 17:38:00,
2013-01-22 09:43:00,26.2,25.2,30.02,ENE,67,0.0,0.0,96,0.00,,,0.00,WUHU21623XXSP,2013-01-22 17:43:00,
2013-01-22 09:48:00,26.4,25.4,30.02,ENE,67,0.0,0.0,96,0.00,,,0.00,WUHU21623XXSP,2013-01-22 17:48:00,
2013-01-22 09:53:00,26.4,25.4,30.01,ENE,67,0.0,0.0,96,0.00,,,0.00,WUHU21623XXSP,2013-01-22 17:53:00,
2013-01-22 09:58:00,26.6,25.6,30.02,ENE,67,0.0,0.0,96,0.00,,,0.00,WUHU21623XXSP,2013-01-22 17:58:00,
2013-01-22 10:03:00,27.0,26.0,30.02,ENE,67,0.0,0.0,96,0.00,,,0.00,WUHU21623XXSP,2013-01-22 18:03:00,
2013-01-22 10:08:00,27.0,26.0,30.02,ENE,67,0.0,0.0,96,0.00,,,0.00,WUHU21623XXSP,2013-01-22 18:08:00,
2013-01-22 10:13:00,27.1,26.4,30.02,ENE,67,0.0,0.0,97,0.00,,,0.00,WUHU21623XXSP,2013-01-22 18:13:00,
2013-01-22 10:18:00,27.3,26.6,30.02,ENE,67,0.0,0.0,97,0.00,,,0.00,WUHU21623XXSP,2013-01-22 18:18:00,
2013-01-22 10:23:00,27.5,26.7,30.02,ENE,67,0.0,0.0,97,0.00,,,0.00,WUHU21623XXSP,2013-01-22 18:23:00,
2013-01-22 10:28:00,28.0,27.3,30.02,ENE,67,0.0,0.0,97,0.00,,,0.00,WUHU21623XXSP,2013-01-22 18:28:00,
2013-01-22 10:33:00,28.2,27.5,30.02,ENE,67,0.0,0.0,97,0.00,,,0.00,WUHU21623XXSP,2013-01-22 18:33:00,
2013-01-22 10:38:00,28.6,27.8,30.02,ENE,67,0.0,0.0,97,0.00,,,0.00,WUHU21623XXSP,2013-01-22 18:38:00,
2013-01-22 10:43:00,28.9,28.2,30.01,ENE,67,0.0,0.0,97,0.00,,,0.00,WUHU21623XXSP,2013-01-22 18:43:00,
2013-01-22 10:48:00,29.3,28.5,30.01,ENE,67,0.0,0.0,97,0.00,,,0.00,WUHU21623XXSP,2013-01-22 18:48:00,
2013-01-22 10:53:00,29.5,28.7,30.01,ENE,67,0.0,0.0,97,0.00,,,0.00,WUHU21623XXSP,2013-01-22 18:53:00,
2013-01-22 10:58:00,29.8,29.1,30.01,ENE,67,0.0,0.0,97,0.00,,,0.00,WUHU21623XXSP,2013-01-22 18:58:00,
2013-01-22 11:03:00,30.4,29.6,30.01,ENE,67,0.0,0.0,97,0.00,,,0.00,WUHU21623XXSP,2013-01-22 19:03:00,
2013-01-22 11:08:00,30.7,30.0,30.00,ENE,67,0.0,0.0,97,0.00,,,0.00,WUHU21623XXSP,2013-01-22 19:08:00,
2013-01-22 11:13:00,30.9,30.2,30.00,ENE,67,0.0,0.0,97,0.00,,,0.00,WUHU21623XXSP,2013-01-22 19:13:00,
2013-01-22 11:18:00,31.3,30.5,30.00,ENE,67,0.0,0.0,97,0.00,,,0.00,WUHU21623XXSP,2013-01-22 19:18:00,
2013-01-22 11:23:00,31.5,30.7,30.00,ENE,67,0.0,0.0,97,0.00,,,0.00,WUHU21623XXSP,2013-01-22 19:23:00,
2013-01-22 11:28:00,31.5,30.7,30.00,ENE,67,0.0,0.0,97,0.00,,,0.00,WUHU21623XXSP,2013-01-22 19:28:00,
2013-01-22 11:33:00,32.0,31.2,30.01,ENE,67,0.0,0.0,97,0.00,,,0.00,WUHU21623XXSP,2013-01-22 19:33:00,
2013-01-22 11:38:00,32.2,31.4,30.01,ENE,67,0.0,0.0,97,0.00,,,0.00,WUHU21623XXSP,2013-01-22 19:38:00,
2013-01-22 11:43:00,32.2,31.4,30.01,ENE,67,0.0,0.0,97,0.00,,,0.00,WUHU21623XXSP,2013-01-22 19:43:00,
2013-01-22 11:48:00,32.2,31.4,30.01,ENE,67,0.0,0.0,97,0.00,,,0.00,WUHU21623XXSP,2013-01-22 19:48:00,
2013-01-22 11:53:00,32.2,31.4,30.01,ENE,67,0.0,0.0,97,0.00,,,0.00,WUHU21623XXSP,2013-01-22 19:53:00,
2013-01-22 11:58:00,32.5,31.8,30.00,ENE,67,0.0,0.0,97,0.00,,,0.00,WUHU21623XXSP,2013-01-22 19:58:00,
2013-01-22 12:03:00,32.7,31.9,30.00,ENE,67,0.0,0.0,97,0.00,,,0.00,WUHU21623XXSP,2013-01-22 20:03:00,
2013-01-22 12:08:00,33.1,32.1,30.00,ENE,67,0.0,0.0,98,0.00,,,0.00,WUHU21623XXSP,2013-01-22 20:08:00,
2013-01-22 12:13:00,33.4,32.5,30.00,ENE,67,0.0,0.0,98,0.00,,,0.00,WUHU21623XXSP,2013-01-22 20:13:00,
2013-01-22 12:18:00,33.6,33.1,30.00,ENE,67,0.0,0.0,98,0.00,,,0.00,WUHU21623XXSP,2013-01-22 20:18:00,
2013-01-22 12:23:00,33.6,33.1,30.00,ENE,67,0.0,0.0,98,0.00,,,0.00,WUHU21623XXSP,2013-01-22 20:23:00,
2013-01-22 12:28:00,33.6,32.8,29.99,ENE,67,0.0,0.0,97,0.00,,,0.00,WUHU21623XXSP,2013-01-22 20:28:00,
2013-01-22 12:33:00,34.0,33.0,29.99,ENE,67,0.0,0.0,97,0.00,,,0.00,WUHU21623XXSP,2013-01-22 20:33:00,
2013-01-22 12:38:00,34.0,33.2,29.99,ENE,67,0.0,0.0,97,0.00,,,0.00,WUHU21623XXSP,2013-01-22 20:38:00,
2013-01-22 12:43:00,34.2,33.4,29.99,ENE,67,0.0,0.0,97,0.00,,,0.00,WUHU21623XXSP,2013-01-22 20:43:00,
2013-01-22 12:48:00,34.2,33.4,29.98,ENE,67,0.0,0.0,97,0.00,,,0.00,WUHU21623XXSP,2013-01-22 20:48:00,
2013-01-22 12:53:00,34.2,33.4,29.99,ENE,67,0.0,0.0,97,0.00,,,0.00,WUHU21623XXSP,2013-01-22 20:53:00,
2013-01-22 12:58:00,34.2,33.4,29.98,ENE,67,0.0,0.0,97,0.00,,,0.00,WUHU21623XXSP,2013-01-22 20:58:00,
2013-01-22 13:03:00,34.3,33.5,29.98,ENE,67,0.0,0.0,97,0.00,,,0.00,WUHU21623XXSP,2013-01-22 21:03:00,
2013-01-22 13:08:00,34.3,33.5,29.98,ENE,67,0.0,0.0,97,0.00,,,0.00,WUHU21623XXSP,2013-01-22 21:08:00,
2013-01-22 13:13:00,34.3,33.5,29.98,ENE,67,0.0,0.0,97,0.00,,,0.00,WUHU21623XXSP,2013-01-22 21:13:00,
2013-01-22 13:18:00,34.3,33.3,29.98,ENE,67,0.0,0.0,96,0.00,,,0.00,WUHU21623XXSP,2013-01-22 21:18:00,
2013-01-22 13:23:00,34.2,33.3,29.97,ENE,67,0.0,0.0,96,0.00,,,0.00,WUHU21623XXSP,2013-01-22 21:23:00,
2013-01-22 13:28:00,34.3,33.3,29.97,ENE,67,0.0,0.0,96,0.00,,,0.00,WUHU21623XXSP,2013-01-22 21:28:00,
2013-01-22 13:31:00,34.3,33.3,29.97,ENE,67,0.0,0.0,96,0.00,,,0.00,WUHU21623XXSP,2013-01-22 21:31:00,
2013-01-22 13:36:00,34.3,33.5,29.97,ENE,67,0.0,0.0,97,0.00,,,0.00,WUHU21623XXSP,2013-01-22 21:36:00,
2013-01-22 13:41:00,34.5,33.7,29.96,ENE,67,0.0,0.0,97,0.00,,,0.00,WUHU21623XXSP,2013-01-22 21:41:00,
2013-01-22 13:46:00,34.5,33.7,29.96,ENE,67,0.0,0.0,97,0.00,,,0.00,WUHU21623XXSP,2013-01-22 21:46:00,
2013-01-22 13:51:00,34.5,33.7,29.96,ENE,67,0.0,0.0,97,0.00,,,0.00,WUHU21623XXSP,2013-01-22 21:51:00,
2013-01-22 13:56:00,34.9,34.1,29.96,ENE,67,0.0,0.0,97,0.00,,,0.00,WUHU21623XXSP,2013-01-22 21:56:00,
2013-01-22 14:01:00,35.2,34.4,29.95,ENE,67,0.0,0.0,97,0.00,,,0.00,WUHU21623XXSP,2013-01-22 22:01:00,
2013-01-22 14:06:00,35.2,34.4,29.95,ENE,67,0.0,0.0,97,0.00,,,0.00,WUHU21623XXSP,2013-01-22 22:06:00,
2013-01-22 14:20:00,35.2,34.4,29.94,ENE,67,0.0,0.0,97,0.00,,,0.00,WUHU21623XXSP,2013-01-22 22:20:00,
2013-01-22 14:25:00,35.2,34.4,29.94,ENE,67,0.0,0.0,97,0.00,,,0.00,WUHU21623XXSP,2013-01-22 22:25:00,
2013-01-22 14:30:00,34.9,34.4,29.95,ENE,67,0.0,0.0,97,0.00,,,0.00,WUHU21623XXSP,2013-01-22 22:30:00,
2013-01-22 14:35:00,34.9,34.1,29.95,East,90,0.0,0.0,97,0.00,,,0.00,WUHU21623XXSP,2013-01-22 22:35:00,
2013-01-22 14:40:00,34.9,34.1,29.95,East,90,0.0,0.0,97,0.00,,,0.00,WUHU21623XXSP,2013-01-22 22:40:00,
2013-01-22 14:45:00,34.9,34.1,29.94,East,90,0.0,0.0,97,0.00,,,0.00,WUHU21623XXSP,2013-01-22 22:45:00,
2013-01-22 14:50:00,34.9,34.1,29.93,East,90,0.0,0.0,97,0.00,,,0.00,WUHU21623XXSP,2013-01-22 22:50:00,
2013-01-22 14:55:00,34.9,34.1,29.94,East,90,0.0,0.0,97,0.00,,,0.00,WUHU21623XXSP,2013-01-22 22:55:00,
2013-01-22 15:00:00,34.9,34.1,29.94,East,90,0.0,0.0,97,0.00,,,0.00,WUHU21623XXSP,2013-01-22 23:00:00,
2013-01-22 15:05:00,34.9,34.1,29.93,East,90,0.0,0.0,97,0.00,,,0.00,WUHU21623XXSP,2013-01-22 23:05:00,
2013-01-22 15:10:00,34.7,33.9,29.94,East,90,0.0,0.0,97,0.00,,,0.00,WUHU21623XXSP,2013-01-22 23:10:00,
2013-01-22 15:15:00,34.9,34.1,29.94,East,90,0.0,0.0,97,0.00,,,0.00,WUHU21623XXSP,2013-01-22 23:15:00,
2013-01-22 15:20:00,34.5,33.9,29.94,East,90,0.0,0.0,97,0.00,,,0.00,WUHU21623XXSP,2013-01-22 23:20:00,
2013-01-22 15:25:00,34.5,33.7,29.93,East,90,0.0,0.0,97,0.00,,,0.00,WUHU21623XXSP,2013-01-22 23:25:00,
2013-01-22 15:30:00,34.5,33.7,29.93,East,90,0.0,0.0,97,0.00,,,0.00,WUHU21623XXSP,2013-01-22 23:30:00,
2013-01-22 15:35:00,34.3,33.5,29.94,East,90,0.0,0.0,97,0.00,,,0.00,WUHU21623XXSP,2013-01-22 23:35:00,
2013-01-22 15:40:00,34.3,33.5,29.93,East,90,0.0,0.0,96,0.00,,,0.00,WUHU21623XXSP,2013-01-22 23:40:00,
2013-01-22 15:45:00,34.2,33.1,29.92,East,90,0.0,0.0,96,0.00,,,0.00,WUHU21623XXSP,2013-01-22 23:45:00,
2013-01-22 15:50:00,34.0,33.1,29.92,East,90,0.0,0.0,96,0.00,,,0.00,WUHU21623XXSP,2013-01-22 23:50:00,
2013-01-22 15:55:00,34.0,32.9,29.91,East,90,0.0,0.0,96,0.00,,,0.00,WUHU21623XXSP,2013-01-22 23:55:00,
2013-01-22 16:00:00,34.0,32.9,29.91,East,90,0.0,0.0,96,0.00,,,0.00,WUHU21623XXSP,2013-01-23 00:00:00,
2013-01-22 16:05:00,34.0,33.2,29.91,East,90,0.0,0.0,97,0.00,,,0.00,WUHU21623XXSP,2013-01-23 00:05:00,
2013-01-22 16:10:00,34.0,33.2,29.91,East,90,0.0,0.0,97,0.00,,,0.00,WUHU21623XXSP,2013-01-23 00:10:00,
2013-01-22 16:15:00,34.0,33.2,29.91,East,90,0.0,0.0,97,0.00,,,0.00,WUHU21623XXSP,2013-01-23 00:15:00,
2013-01-22 16:20:00,33.8,33.0,29.91,East,90,0.0,0.0,97,0.00,,,0.00,WUHU21623XXSP,2013-01-23 00:20:00,
2013-01-22 16:25:00,33.8,33.0,29.91,East,90,0.0,0.0,97,0.00,,,0.00,WUHU21623XXSP,2013-01-23 00:25:00,
2013-01-22 16:30:00,33.8,33.0,29.91,East,90,0.0,0.0,97,0.00,,,0.00,WUHU21623XXSP,2013-01-23 00:30:00,
2013-01-22 16:35:00,33.8,33.0,29.91,East,90,0.0,0.0,97,0.00,,,0.00,WUHU21623XXSP,2013-01-23 00:35:00,
2013-01-22 16:40:00,33.6,32.8,29.91,East,90,0.0,0.0,97,0.00,,,0.00,WUHU21623XXSP,2013-01-23 00:40:00,
2013-01-22 16:45:00,33.6,32.8,29.91,East,90,0.0,0.0,97,0.00,,,0.00,WUHU21623XXSP,2013-01-23 00:45:00,
2013-01-22 16:50:00,33.6,32.8,29.91,East,90,0.0,0.0,97,0.00,,,0.00,WUHU21623XXSP,2013-01-23 00:50:00,
2013-01-22 16:55:00,33.6,32.8,29.91,East,90,0.0,0.0,97,0.00,,,0.00,WUHU21623XXSP,2013-01-23 00:55:00,
2013-01-22 17:00:00,33.6,32.8,29.92,East,90,0.0,0.0,97,0.00,,,0.00,WUHU21623XXSP,2013-01-23 01:00:00,
2013-01-22 17:05:00,33.6,32.8,29.92,East,90,0.0,0.0,97,0.00,,,0.00,WUHU21623XXSP,2013-01-23 01:05:00,
2013-01-22 17:10:00,33.4,32.6,29.92,East,90,0.0,0.0,97,0.00,,,0.00,WUHU21623XXSP,2013-01-23 01:10:00,
2013-01-22 17:15:00,33.6,32.6,29.92,East,90,0.0,0.0,97,0.00,,,0.00,WUHU21623XXSP,2013-01-23 01:15:00,
2013-01-22 17:20:00,33.4,32.6,29.92,East,90,0.0,0.0,97,0.00,,,0.00,WUHU21623XXSP,2013-01-23 01:20:00,
2013-01-22 17:25:00,33.4,32.6,29.92,East,90,0.0,0.0,97,0.00,,,0.00,WUHU21623XXSP,2013-01-23 01:25:00,
2013-01-22 17:31:00,33.4,32.6,29.91,East,90,0.0,0.0,97,0.00,,,0.00,WUHU21623XXSP,2013-01-23 01:31:00,
2013-01-22 17:36:00,33.1,32.5,29.91,East,90,0.0,0.0,97,0.00,,,0.00,WUHU21623XXSP,2013-01-23 01:36:00,
2013-01-22 17:41:00,32.9,32.3,29.91,East,90,0.0,0.0,97,0.00,,,0.00,WUHU21623XXSP,2013-01-23 01:41:00,
2013-01-22 17:46:00,32.7,32.1,29.91,East,90,0.0,0.0,97,0.00,,,0.00,WUHU21623XXSP,2013-01-23 01:46:00,
2013-01-22 17:51:00,32.7,31.9,29.91,East,90,0.0,0.0,97,0.00,,,0.00,WUHU21623XXSP,2013-01-23 01:51:00,
2013-01-22 17:56:00,32.7,31.9,29.90,East,90,0.0,0.0,97,0.00,,,0.00,WUHU21623XXSP,2013-01-23 01:56:00,
2013-01-22 18:01:00,32.7,31.9,29.90,East,90,0.0,0.0,97,0.00,,,0.00,WUHU21623XXSP,2013-01-23 02:01:00,
2013-01-22 18:06:00,32.7,31.9,29.90,East,90,0.0,0.0,97,0.00,,,0.00,WUHU21623XXSP,2013-01-23 02:06:00,
2013-01-22 18:11:00,32.7,31.9,29.91,East,90,0.0,0.0,97,0.00,,,0.00,WUHU21623XXSP,2013-01-23 02:11:00,
2013-01-22 18:16:00,32.7,31.9,29.91,East,90,0.0,0.0,97,0.00,,,0.00,WUHU21623XXSP,2013-01-23 02:16:00,
2013-01-22 18:21:00,32.7,31.9,29.90,East,90,0.0,0.0,97,0.00,,,0.00,WUHU21623XXSP,2013-01-23 02:21:00,
2013-01-22 18:26:00,32.7,31.9,29.90,East,90,0.0,0.0,97,0.00,,,0.00,WUHU21623XXSP,2013-01-23 02:26:00,
2013-01-22 18:31:00,32.5,31.8,29.90,East,90,0.0,0.0,97,0.00,,,0.00,WUHU21623XXSP,2013-01-23 02:31:00,
2013-01-22 18:36:00,32.5,31.8,29.90,East,90,0.0,0.0,97,0.00,,,0.00,WUHU21623XXSP,2013-01-23 02:36:00,
2013-01-22 18:41:00,32.5,31.8,29.90,East,90,0.0,0.0,97,0.00,,,0.00,WUHU21623XXSP,2013-01-23 02:41:00,
2013-01-22 18:46:00,32.5,31.8,29.91,East,90,0.0,0.0,97,0.00,,,0.00,WUHU21623XXSP,2013-01-23 02:46:00,
2013-01-22 18:51:00,32.4,31.6,29.90,East,90,0.0,0.0,97,0.00,,,0.00,WUHU21623XXSP,2013-01-23 02:51:00,
2013-01-22 18:56:00,32.4,31.6,29.90,East,90,0.0,0.0,97,0.00,,,0.00,WUHU21623XXSP,2013-01-23 02:56:00,
2013-01-22 19:01:00,32.4,31.4,29.90,East,90,0.0,0.0,97,0.00,,,0.00,WUHU21623XXSP,2013-01-23 03:01:00,
2013-01-22 19:06:00,32.2,31.4,29.89,East,90,0.0,0.0,97,0.00,,,0.00,WUHU21623XXSP,2013-01-23 03:06:00,
2013-01-22 19:11:00,32.2,31.4,29.89,East,90,0.0,0.0,97,0.00,,,0.00,WUHU21623XXSP,2013-01-23 03:11:00,
2013-01-22 19:16:00,32.2,31.4,29.89,East,90,0.0,0.0,97,0.00,,,0.00,WUHU21623XXSP,2013-01-23 03:16:00,
2013-01-22 19:21:00,32.4,31.6,29.89,East,90,0.0,0.0,97,0.00,,,0.00,WUHU21623XXSP,2013-01-23 03:21:00,
2013-01-22 19:26:00,32.4,31.6,29.88,East,90,0.0,0.0,97,0.00,,,0.00,WUHU21623XXSP,2013-01-23 03:26:00,
2013-01-22 19:31:00,32.4,31.6,29.89,East,90,0.0,0.0,97,0.00,,,0.00,WUHU21623XXSP,2013-01-23 03:31:00,
2013-01-22 19:36:00,32.4,31.6,29.88,East,90,0.0,0.0,97,0.00,,,0.00,WUHU21623XXSP,2013-01-23 03:36:00,
2013-01-22 19:41:00,32.5,31.8,29.88,East,90,0.0,0.0,97,0.00,,,0.00,WUHU21623XXSP,2013-01-23 03:41:00,
2013-01-22 19:46:00,32.5,31.6,29.89,East,90,0.0,0.0,97,0.00,,,0.00,WUHU21623XXSP,2013-01-23 03:46:00,
2013-01-22 19:51:00,32.4,31.6,29.89,East,90,0.0,0.0,97,0.00,,,0.00,WUHU21623XXSP,2013-01-23 03:51:00,
2013-01-22 19:56:00,32.5,31.6,29.89,East,90,0.0,0.0,97,0.00,,,0.00,WUHU21623XXSP,2013-01-23 03:56:00,
2013-01-22 20:01:00,32.5,31.8,29.89,East,90,0.0,0.0,97,0.00,,,0.00,WUHU21623XXSP,2013-01-23 04:01:00,
2013-01-22 20:06:00,32.5,31.8,29.89,East,90,0.0,0.0,97,0.00,,,0.00,WUHU21623XXSP,2013-01-23 04:06:00,
2013-01-22 20:11:00,32.5,31.8,29.89,East,90,0.0,0.0,97,0.00,,,0.00,WUHU21623XXSP,2013-01-23 04:11:00,
2013-01-22 20:16:00,32.5,31.6,29.88,East,90,0.0,0.0,97,0.00,,,0.00,WUHU21623XXSP,2013-01-23 04:16:00,
2013-01-22 20:21:00,32.5,31.8,29.88,East,90,0.0,0.0,97,0.00,,,0.00,WUHU21623XXSP,2013-01-23 04:21:00,
2013-01-22 20:26:00,32.4,31.6,29.88,East,90,0.0,0.0,97,0.00,,,0.00,WUHU21623XXSP,2013-01-23 04:26:00,
2013-01-22 20:31:00,32.5,31.8,29.88,East,90,0.0,0.0,97,0.00,,,0.00,WUHU21623XXSP,2013-01-23 04:31:00,
2013-01-22 20:36:00,32.4,31.6,29.88,East,90,0.0,0.0,97,0.00,,,0.00,WUHU21623XXSP,2013-01-23 04:36:00,
2013-01-22 20:41:00,32.5,31.8,29.88,East,90,0.0,0.0,97,0.00,,,0.00,WUHU21623XXSP,2013-01-23 04:41:00,
2013-01-22 20:46:00,32.5,31.8,29.89,East,90,0.0,0.0,97,0.00,,,0.00,WUHU21623XXSP,2013-01-23 04:46:00,
2013-01-22 20:51:00,32.5,31.8,29.89,East,90,0.0,0.0,97,0.00,,,0.00,WUHU21623XXSP,2013-01-23 04:51:00,
2013-01-22 20:56:00,32.5,31.8,29.89,East,90,0.0,0.0,97,0.00,,,0.00,WUHU21623XXSP,2013-01-23 04:56:00,
2013-01-22 21:00:00,32.5,31.8,29.89,East,90,0.0,0.0,97,0.00,,,0.00,WUHU21623XXSP,2013-01-23 05:00:00,
2013-01-22 21:03:00,32.5,31.8,29.89,East,90,0.0,0.0,97,0.00,,,0.00,WUHU21623XXSP,2013-01-23 05:03:00,
2013-01-22 21:08:00,32.5,31.8,29.89,East,90,0.0,0.0,97,0.00,,,0.00,WUHU21623XXSP,2013-01-23 05:08:00,
2013-01-22 21:13:00,32.4,31.6,29.89,East,90,0.0,0.0,97,0.00,,,0.00,WUHU21623XXSP,2013-01-23 05:13:00,
2013-01-22 21:18:00,32.4,31.6,29.89,East,90,0.0,0.0,97,0.00,,,0.00,WUHU21623XXSP,2013-01-23 05:18:00,
2013-01-22 21:23:00,32.4,31.6,29.89,East,90,0.0,0.0,97,0.00,,,0.00,WUHU21623XXSP,2013-01-23 05:23:00,
2013-01-22 21:28:00,32.4,31.6,29.88,East,90,0.0,0.0,97,0.00,,,0.00,WUHU21623XXSP,2013-01-23 05:28:00,
2013-01-22 21:33:00,32.4,31.6,29.87,ESE,112,0.0,0.0,97,0.00,,,0.00,WUHU21623XXSP,2013-01-23 05:33:00,
2013-01-22 21:38:00,32.4,31.8,29.87,ENE,67,0.0,0.0,98,0.00,,,0.00,WUHU21623XXSP,2013-01-23 05:38:00,
2013-01-22 21:43:00,32.4,31.8,29.87,ENE,67,0.0,0.0,98,0.00,,,0.00,WUHU21623XXSP,2013-01-23 05:43:00,
2013-01-22 21:48:00,32.4,31.8,29.86,ENE,67,0.0,0.0,98,0.00,,,0.00,WUHU21623XXSP,2013-01-23 05:48:00,
2013-01-22 21:53:00,32.4,31.8,29.85,ENE,67,0.0,0.0,98,0.00,,,0.00,WUHU21623XXSP,2013-01-23 05:53:00,
2013-01-22 21:58:00,32.5,32.0,29.86,ENE,67,0.0,0.0,98,0.00,,,0.00,WUHU21623XXSP,2013-01-23 05:58:00,
2013-01-22 22:03:00,32.5,32.0,29.86,ENE,67,0.0,0.0,98,0.00,,,0.00,WUHU21623XXSP,2013-01-23 06:03:00,
2013-01-22 22:08:00,32.5,32.0,29.85,ENE,67,0.0,0.0,98,0.00,,,0.00,WUHU21623XXSP,2013-01-23 06:08:00,
2013-01-22 22:13:00,32.5,32.0,29.85,ENE,67,0.0,0.0,98,0.00,,,0.00,WUHU21623XXSP,2013-01-23 06:13:00,
2013-01-22 22:18:00,32.7,32.2,29.85,ENE,67,0.0,0.0,98,0.00,,,0.00,WUHU21623XXSP,2013-01-23 06:18:00,
2013-01-22 22:23:00,32.7,32.2,29.85,ENE,67,0.0,0.0,98,0.00,,,0.00,WUHU21623XXSP,2013-01-23 06:23:00,
2013-01-22 22:28:00,32.7,32.2,29.85,ENE,67,0.0,0.0,98,0.00,,,0.00,WUHU21623XXSP,2013-01-23 06:28:00,
2013-01-22 22:33:00,32.7,32.2,29.85,ENE,67,0.0,0.0,98,0.00,,,0.00,WUHU21623XXSP,2013-01-23 06:33:00,
2013-01-22 22:38:00,32.7,32.2,29.85,ENE,67,0.0,0.0,98,0.00,,,0.00,WUHU21623XXSP,2013-01-23 06:38:00,
2013-01-22 22:43:00,32.7,32.2,29.85,ENE,67,0.0,0.0,98,0.00,,,0.00,WUHU21623XXSP,2013-01-23 06:43:00,
2013-01-22 22:48:00,32.7,32.2,29.85,ENE,67,0.0,0.0,98,0.00,,,0.00,WUHU21623XXSP,2013-01-23 06:48:00,
2013-01-22 22:53:00,32.7,32.2,29.85,ENE,67,0.0,0.0,98,0.00,,,0.00,WUHU21623XXSP,2013-01-23 06:53:00,
2013-01-22 22:58:00,32.7,32.2,29.85,ENE,67,0.0,0.0,98,0.00,,,0.00,WUHU21623XXSP,2013-01-23 06:58:00,
2013-01-22 23:03:00,32.7,32.2,29.85,ENE,67,0.0,0.0,98,0.00,,,0.00,WUHU21623XXSP,2013-01-23 07:03:00,
2013-01-22 23:08:00,32.7,32.2,29.85,ENE,67,0.0,0.0,98,0.00,,,0.00,WUHU21623XXSP,2013-01-23 07:08:00,
2013-01-22 23:13:00,32.7,32.2,29.86,ENE,67,0.0,0.0,98,0.00,,,0.00,WUHU21623XXSP,2013-01-23 07:13:00,
2013-01-22 23:18:00,32.7,32.2,29.87,ENE,67,0.0,0.0,98,0.00,,,0.00,WUHU21623XXSP,2013-01-23 07:18:00,
2013-01-22 23:23:00,32.7,32.2,29.87,ENE,67,0.0,0.0,98,0.00,,,0.00,WUHU21623XXSP,2013-01-23 07:23:00,
2013-01-22 23:28:00,32.7,32.2,29.87,ENE,67,0.0,0.0,98,0.00,,,0.00,WUHU21623XXSP,2013-01-23 07:28:00,
2013-01-22 23:33:00,32.7,32.2,29.87,ENE,67,0.0,0.0,98,0.00,,,0.00,WUHU21623XXSP,2013-01-23 07:33:00,
2013-01-22 23:38:00,32.7,32.2,29.88,ENE,67,0.0,0.0,98,0.00,,,0.00,WUHU21623XXSP,2013-01-23 07:38:00,
2013-01-22 23:43:00,32.7,32.2,29.87,ENE,67,0.0,0.0,98,0.00,,,0.00,WUHU21623XXSP,2013-01-23 07:43:00,
2013-01-22 23:48:00,32.7,32.2,29.87,ENE,67,0.0,0.0,98,0.00,,,0.00,WUHU21623XXSP,2013-01-23 07:48:00,
2013-01-22 23:53:00,32.7,32.2,29.87,ENE,67,0.0,0.0,98,0.00,,,0.00,WUHU21623XXSP,2013-01-23 07:53:00,
2013-01-22 23:58:00,32.7,32.2,29.87,ENE,67,0.0,0.0,98,0.00,,,0.00,WUHU21623XXSP,2013-01-23 07:58:00,